User: anonymous   Login
Location: Dover
(39.1580°N, 75.5250°W)
Time: 12:50:24
(UTC-04:00)
Language:

Cosmos 1437 Rocket - Orbit

View from above orbital plane
View from above orbital plane
View from above satellite
View from above satellite

Ground track
Ground track

The orbit data is extracted from the following two-line orbital elements,

1 13771U 83003B   17083.71162194 +.00000931 +00000-0 +55447-4 0  9995
2 13771 081.1344 100.1457 0039713 284.9312 074.7518 15.09635767861042
Epoch (UTC): 24 March 2017 17:04:44
Eccentricity: 0.0039713
inclination: 81.1344°
perigee height: 510 km
apogee height: 565 km
right ascension of ascending node: 100.1457°
argument of perigee: 284.9312°
revolutions per day: 15.09635767
mean anomaly at epoch: 74.7518°
orbit number at epoch: 86104

The dashed part of the orbit path shows where the satellite is in the earth's shadow,  

DLR